Regional Weather Roundup
Issued by NWS

Home | Current Version | Previous Version | Graphics & Text | Print | Product List | Glossary On
Versions: 1 2 3 4 5 6 7 8 9 10 11 12 13 14 15 16 17 18 19 20 21 22 23 24 25 26 27 28 29 30 31 32 33 34 35 36 37 38 39 40 41 42 43 44 45 46 47 48 49 50
000
ASUS45 KABQ 281710
RWRNM
NEW MEXICO REGIONAL WEATHER ROUNDUP
NATIONAL WEATHER SERVICE ALBUQUERQUE NM
1100 AM MDT FRI APR 28 2017

NOTE: "FAIR" MEANS FEW OR NO CLOUDS BELOW 12,000 FEET AGL WITH NO
       SIGNIFICANT WEATHER OR OBSTRUCTIONS TO VISION.

      THIS PRODUCT IS RELEASED AS TWO VERSIONS.  ONE VERSION NEAR
      THE TOP OF THE HOUR CONTAINING PRELIMINARY DATA FROM ALBUQUERQUE
      AND OTHER STATIONS.  A FINAL VERSION WITH ADDITIONAL DATA IS
      ISSUED ABOUT 10 MINUTES AFTER THE HOUR.

NMZ501-503-504-510>518-281800-
NORTHWEST PLATEAU/NORTHCENTRAL MOUNTAINS

CITY           SKY/WX    TMP DP  RH WIND       PRES   REMARKS
FARMINGTON     CLOUDY    39  32  76 SW8       29.76S WCI  33
LOS ALAMOS     MIX PCPN  31  31 100 NW5       29.78S WCI  27
SANTA FE       LGT SNOW  32  32 100 N6        29.76F VSB 3/4 WCI  26
TAOS             N/A     34  23  64 S8        29.77S WCI  27
ANGEL FIRE     LGT SNOW  28  26  90 SE3       29.77S

$$
NMZ402-403-502-505>509-281800-
WESTCENTRAL MOUNTAINS/SOUTHWEST MOUNTAINS

CITY           SKY/WX    TMP DP  RH WIND       PRES   REMARKS
GALLUP         LGT RAIN  38  34  85 NW12      29.80S WCI  30
GRANTS         LGT RAIN  35  35  97 NW9       29.81S WCI  28
SILVER CITY    FAIR      65  38  35 W26G36    29.77S

$$
NMZ407-409-411-412-281800-
SOUTHERN DESERTS

CITY           SKY/WX    TMP DP  RH WIND       PRES   REMARKS
DEMING         FAIR      74  38  27 W24G37    29.72F
LAS CRUCES     FAIR      73  34  24 W21G30    29.73F
HOLLOMAN AFB   FAIR      75  37  24 SW16G26   29.73F
ALAMOGORDO     FAIR      73  36  25 SW15G23   29.71F
T OR C         PTSUNNY   70  34  26 W21G36    29.67F

$$
NMZ519>523-281800-
CENTRAL VALLEYS/CENTRAL HIGHLANDS

CITY           SKY/WX    TMP DP  RH WIND       PRES   REMARKS
ALBUQUERQUE    CLOUDY    42  36  79 N18       29.75S
DOUBLE EAGLE   LGT RAIN  37  36  93 N12       29.77  WCI  30
MORIARTY ARPT  LGT RAIN  45  34  66 N13       29.75R
CLINES CORNERS LGT RAIN  40  29  64 NW12      29.75R WCI  33
BELEN          PTSUNNY   51  34  51 N18G24    29.73S
SOCORRO        CLOUDY    53  26  35 N14       29.70F

$$
NMZ524>526-539-540-281800-
SOUTHCENTRAL MOUNTAINS

CITY           SKY/WX    TMP DP  RH WIND       PRES   REMARKS
RUIDOSO        FAIR      61  34  36 W26G37    29.76F

$$
NMZ527>531-281800-
NORTHEAST HIGHLANDS/NORTHEAST PLAINS

CITY           SKY/WX    TMP DP  RH WIND       PRES   REMARKS
LAS VEGAS      LGT RAIN  38  31  76 N18       29.76R WCI  28
RATON          CLOUDY    45  20  36 SW13      29.70R
CLAYTON        CLOUDY    55  23  28 N3        29.68S

$$
NMZ532>537-281800-
EASTCENTRAL PLAINS

CITY           SKY/WX    TMP DP  RH WIND       PRES   REMARKS
SANTA ROSA     PTSUNNY   59  25  26 SE5       29.67F
TUCUMCARI      PTSUNNY   63  27  25 E3        29.65F
CANNON AFB     CLOUDY    66  30  25 S13       29.67F
CLOVIS AIRPORT PTSUNNY   68  34  28 S9G18     29.69S

$$
NMZ028-029-538-281800-
SOUTHEAST PLAINS

CITY           SKY/WX    TMP DP  RH WIND       PRES   REMARKS
ROSWELL        FAIR      68  29  23 SE9       29.67F
ARTESIA        FAIR      70  34  26 SE13      29.68S
CARLSBAD       FAIR      74  34  23 SE14G23   29.66F
HOBBS          SUNNY     75  30  19 SE13      29.70F


$$




USA.gov is the U.S. government's official web portal to all federal, state and local government web resources and services.